Find Local Weather

World > North America > United States > Michigan

Union Lake, Michigan Regional Weather

Lat: 42.61N, Lon: 83.45W
Wx Zone: MIZ069
Feedback
Expires:201812121000;;670531
ASUS43 KDTX 120910
RWRMI 
MICHIGAN HOURLY REGIONAL WEATHER ROUNDUP
NATIONAL WEATHER SERVICE DETROIT/PONTIAC MI
400 AM EST WED DEC 12 2018

NOTE: "FAIR" INDICATES FEW OR NO CLOUDS BELOW 12,000 FEET WITH NO
SIGNIFICANT WEATHER AND/OR OBSTRUCTION TO VISIBILITY.


MIZ047>049-052>055-059>063-066>070-074>076-081>083-121000-
SOUTHEAST LOWER MICHIGAN
  
CITY           SKY/WX    TMP DP  RH WIND       PRES   REMARKS
ADRIAN         CLOUDY    27  22  81 S7        30.07S WCI  19          
ALMA           FAIR      27  23  86 E6        30.03F WCI  20          
ANN ARBOR      FAIR      15  14  95 CALM      30.06F FOG              
BAD AXE        CLOUDY    29  27  91 CALM      30.07F                  
CARO           FAIR      22  22  98 CALM      30.07S FOG              
DETROIT CITY   FAIR      24  20  84 CALM      30.08F                  
DETROIT        CLOUDY    24  19  81 E5        30.08F HAZE    WCI  18  
FLINT          FAIR      21  19  92 SE5       30.06F WCI  15          
GROSSE ILE     FAIR      26  24  93 E3        30.07F FOG              
HILLSDALE      FAIR      28  23  80 SE6       30.01F WCI  22          
HOWELL         FAIR      22  20  93 SE3       30.04F FOG              

CITY           SKY/WX    TMP DP  RH WIND       PRES   REMARKS
JACKSON        MOCLDY    26  22  84 E7        30.02F WCI  18          
LAMBERTVILLE   FAIR      27  24  89 CALM      30.08S                  
LANSING        FAIR      25  22  88 SE7       30.03F WCI  17          
LAPEER         FAIR      19  18  93 CALM      30.06F FOG              
MASON          CLOUDY    26  24  90 SE6       30.03F WCI  19          
MONROE         FAIR      21  20  98 CALM      30.08R                  
MT. CLEMENS    FAIR      21  21  99 CALM      30.07F                  
PONTIAC        FAIR      17  15  92 CALM      30.04F FOG              
PORT HOPE        N/A     31  26  82 SW6       30.06S WCI  25          
PORT HURON     FAIR      18  16  93 CALM      30.09F FOG              
TRI CITIES     FAIR      28  24  85 E5        30.06F WCI  23          
MIDLAND        CLOUDY    30  26  85 E5        30.04F WCI  25          
TROY           FAIR      24  20  84 CALM      30.09F HAZE             
SAGINAW HB     FAIR      27  23  86 E3        30.06F                  
$$

SKY/WX - Weather  TMP - Temperature  DP - Dew Point  RH - Relative Humidity
WIND - Wind Direction/Speed PRES - Barometric Pressure